Date String (YYYY-MM-DD hh:mm:ss) UTC,Instrument flags,Ambient pressure (hPa),Sample flow (lpm),Bypass flow (lpm),Sample temperature (°C),Ambient temperature (°C),ASC tube jacket temperature (°C),LED temperature (°C),Box temperature (°C),Sample RH (%),Span deviation,Mass concentration (μg/m³),Mass concentration (μg/m³),Mass concentration (μg/m³)
DateTimeUTC,F1_M11,P_M11,Q1_M11,Q2_M11,T1_M11,T2_M11,T3_M11,T4_M11,T5_M11,U1_M11,ZSPAN_M11,X2_M11,X0_M11,X1_M11
2022-07-26 18:00:00,,0829.3,4.99,0.00,29.6,28.2,00.0,38.2,31.4,31.6,0000.0,0008.07,0015.67,0007.12
2022-07-26 18:01:00,,0829.3,5.01,0.00,29.6,28.2,00.0,38.2,31.4,32.4,0000.0,0008.09,0015.73,0007.11
2022-07-26 18:02:00,,0829.4,5.00,0.00,29.6,27.7,00.0,38.2,31.4,32.5,0000.0,0008.08,0015.78,0007.11
2022-07-26 18:03:00,,0829.3,4.99,0.00,29.6,27.2,00.0,38.1,31.3,32.5,0000.0,0008.09,0015.49,0007.12
2022-07-26 18:04:00,,0829.4,5.01,0.00,29.5,27.1,00.0,38.1,31.2,32.8,0000.0,0008.09,0015.30,0007.13
2022-07-26 18:05:00,,0829.3,5.00,0.00,29.4,27.1,00.0,38.1,31.1,33.0,0000.0,0008.10,0014.72,0007.14
2022-07-26 18:06:00,,0829.2,5.00,0.00,29.4,27.3,00.0,38.1,31.1,33.1,0000.0,0008.17,0014.94,0007.15
2022-07-26 18:07:00,,0829.3,5.00,0.00,29.4,27.5,00.0,38.1,31.1,33.4,0000.0,0008.23,0015.31,0007.16
2022-07-26 18:08:00,,0829.2,5.00,0.00,29.4,27.7,00.0,38.1,31.2,33.2,0000.0,0008.26,0014.94,0007.15
2022-07-26 18:09:00,,0829.3,5.00,0.00,29.5,27.9,00.0,38.1,31.3,33.2,0000.0,0008.31,0014.72,0007.18
2022-07-26 18:10:00,,0829.2,5.00,0.00,29.5,28.0,00.0,38.1,31.3,32.8,0000.0,0008.37,0015.04,0007.21
2022-07-26 18:11:00,,0829.2,5.01,0.00,29.5,28.2,00.0,38.2,31.4,32.9,0000.0,0008.40,0014.32,0007.26
2022-07-26 18:12:00,,0829.2,4.99,0.00,29.5,28.3,00.0,38.2,31.4,33.3,0000.0,0008.40,0013.73,0007.28
2022-07-26 18:13:00,,0829.3,5.00,0.00,29.5,27.8,00.0,38.1,31.4,33.8,0000.0,0008.44,0013.52,0007.29
2022-07-26 18:14:00,,0829.3,5.01,0.00,29.5,27.2,00.0,38.1,31.3,33.2,0000.0,0008.43,0013.48,0007.30
2022-07-26 18:15:00,,0829.2,5.00,0.00,29.5,27.1,00.0,38.1,31.2,33.7,0000.0,0008.47,0013.74,0007.33
2022-07-26 18:16:00,,0829.2,4.99,0.00,29.4,27.1,00.0,38.1,31.1,33.3,0000.0,0008.47,0014.20,0007.33
2022-07-26 18:17:00,,0829.3,5.01,0.00,29.4,27.3,00.0,38.1,31.1,33.6,0000.0,0008.48,0014.47,0007.34
2022-07-26 18:18:00,,0829.2,5.00,0.00,29.4,27.5,00.0,38.1,31.1,33.3,0000.0,0008.45,0014.14,0007.36
2022-07-26 18:19:00,,0829.4,5.00,0.00,29.4,27.7,00.0,38.1,31.2,33.7,0000.0,0008.40,0013.91,0007.39
2022-07-26 18:20:00,,0829.2,5.00,0.00,29.4,27.9,00.0,38.1,31.3,33.4,0000.0,0008.36,0013.83,0007.40
2022-07-26 18:21:00,,0829.2,4.99,0.00,29.4,28.0,00.0,38.1,31.3,32.9,0000.0,0008.30,0013.42,0007.40
2022-07-26 18:22:00,,0829.3,5.00,0.00,29.5,28.0,00.0,38.1,31.4,33.3,0000.0,0008.31,0013.26,0007.41
2022-07-26 18:23:00,,0829.2,5.01,0.00,29.4,27.4,00.0,38.1,31.3,32.8,0000.0,0008.34,0013.46,0007.42
2022-07-26 18:24:00,,0829.2,4.99,0.00,29.4,27.1,00.0,38.0,31.2,33.7,0000.0,0008.33,0013.79,0007.43
2022-07-26 18:25:00,,0829.2,5.01,0.00,29.3,27.0,00.0,38.0,31.1,33.7,0000.0,0008.31,0013.84,0007.43
2022-07-26 18:26:00,,0829.3,4.99,0.00,29.3,27.1,00.0,38.0,31.0,34.0,0000.0,0008.28,0013.72,0007.42
2022-07-26 18:27:00,,0829.2,5.00,0.00,29.3,27.3,00.0,38.0,31.0,33.7,0000.0,0008.30,0013.65,0007.43
2022-07-26 18:28:00,,0829.3,5.00,0.00,29.3,27.5,00.0,38.0,31.1,33.6,0000.0,0008.30,0014.09,0007.45
2022-07-26 18:29:00,,0829.3,5.00,0.00,29.3,27.7,00.0,38.0,31.1,32.9,0000.0,0008.31,0014.02,0007.48
2022-07-26 18:30:00,,0829.3,5.00,0.00,29.3,27.9,00.0,38.0,31.2,32.9,0000.0,0008.32,0013.99,0007.48
2022-07-26 18:31:00,,0829.2,4.99,0.00,29.4,28.0,00.0,38.0,31.3,33.2,0000.0,0008.32,0014.06,0007.49
2022-07-26 18:32:00,,0829.2,5.00,0.00,29.4,28.2,00.0,38.1,31.3,32.7,0000.0,0008.35,0014.22,0007.51
2022-07-26 18:33:00,,0829.1,4.99,0.00,29.4,27.9,00.0,38.0,31.3,33.0,0000.0,0008.32,0014.24,0007.51
2022-07-26 18:34:00,,0829.2,5.00,0.00,29.4,27.4,00.0,38.0,31.2,33.8,0000.0,0008.32,0014.49,0007.52
2022-07-26 18:35:00,,0829.1,5.01,0.00,29.4,27.1,00.0,38.0,31.2,33.3,0000.0,0008.39,0015.05,0007.55
2022-07-26 18:36:00,,0829.1,4.99,0.00,29.3,27.1,00.0,38.0,31.0,33.5,0000.0,0008.46,0015.47,0007.58
2022-07-26 18:37:00,,0829.1,5.00,0.00,29.3,27.2,00.0,38.0,31.0,34.0,0000.0,0008.48,0015.55,0007.60
2022-07-26 18:38:00,,0829.1,5.00,0.00,29.3,27.4,00.0,38.0,31.1,34.7,0000.0,0008.52,0016.40,0007.61
2022-07-26 18:39:00,,0829.1,4.99,0.00,29.4,27.6,00.0,38.0,31.2,33.9,0000.0,0008.56,0016.00,0007.61
2022-07-26 18:40:00,,0829.1,5.01,0.00,29.5,27.8,00.0,38.0,31.2,33.6,0000.0,0008.57,0016.23,0007.60
2022-07-26 18:41:00,,0829.1,5.00,0.00,29.5,28.0,00.0,38.0,31.3,33.3,0000.0,0008.62,0016.83,0007.62
2022-07-26 18:42:00,,0829.1,4.99,0.00,29.5,28.1,00.0,38.0,31.3,32.5,0000.0,0008.65,0017.12,0007.62
2022-07-26 18:43:00,,0829.1,5.01,0.00,29.6,28.2,00.0,38.1,31.4,32.6,0000.0,0008.68,0017.46,0007.62
2022-07-26 18:44:00,,0829.0,5.00,0.00,29.6,27.8,00.0,38.0,31.3,32.4,0000.0,0008.69,0017.57,0007.62
2022-07-26 18:45:00,,0829.0,5.00,0.00,29.5,27.3,00.0,38.0,31.2,32.8,0000.0,0008.68,0017.88,0007.62
2022-07-26 18:46:00,,0829.0,5.00,0.00,29.5,27.1,00.0,38.0,31.2,32.5,0000.0,0008.62,0017.14,0007.61
2022-07-26 18:47:00,,0829.0,5.00,0.00,29.5,27.2,00.0,38.0,31.0,32.0,0000.0,0008.58,0016.51,0007.61
2022-07-26 18:48:00,,0829.0,4.99,0.00,29.4,27.3,00.0,38.0,31.1,32.0,0000.0,0008.56,0016.36,0007.61
2022-07-26 18:49:00,,0829.0,5.00,0.00,29.4,27.5,00.0,38.0,31.1,32.5,0000.0,0008.50,0015.48,0007.60
2022-07-26 18:50:00,,0829.0,5.00,0.00,29.4,27.7,00.0,38.1,31.2,32.1,0000.0,0008.48,0014.83,0007.61
2022-07-26 18:51:00,,0829.0,5.00,0.00,29.5,27.9,00.0,38.1,31.2,32.3,0000.0,0008.50,0015.59,0007.62
2022-07-26 18:52:00,,0829.0,4.99,0.00,29.5,28.1,00.0,38.1,31.3,32.1,0000.0,0008.48,0015.24,0007.61
2022-07-26 18:53:00,,0829.0,5.01,0.00,29.5,28.2,00.0,38.1,31.4,32.8,0000.0,0008.52,0015.23,0007.62
2022-07-26 18:54:00,,0829.0,5.00,0.00,29.5,27.8,00.0,38.1,31.3,33.7,0000.0,0008.53,0015.04,0007.61
2022-07-26 18:55:00,,0829.0,4.99,0.00,29.5,27.3,00.0,38.0,31.2,33.3,0000.0,0008.52,0015.06,0007.60
2022-07-26 18:56:00,,0829.1,5.01,0.00,29.4,27.1,00.0,38.0,31.2,32.1,0000.0,0008.53,0014.76,0007.61
2022-07-26 18:57:00,,0829.0,4.99,0.00,29.4,27.1,00.0,38.0,31.0,31.9,0000.0,0008.55,0014.63,0007.59
2022-07-26 18:58:00,,0829.0,5.00,0.00,29.4,27.3,00.0,38.0,31.0,31.6,0000.0,0008.56,0015.00,0007.58
2022-07-26 18:59:00,,0829.0,4.99,0.00,29.4,27.5,00.0,38.0,31.1,32.3,0000.0,0008.57,0015.66,0007.56
